Location: Newark
(12.5331°N, 56.4669°W)
Time: 00:28:42
(UTC+00:00)

LightSail 2 - Pass Details

Date: 02 February 2020
Orbit: 700 x 722 km, 24.0° (Epoch: 20 February)

Event Time Altitude Azimuth Distance (km) Brightness Sun altitude
Rises 00:12:03 0° 260° (W) 3,071 9.5 -35.0°
Reaches altitude 10° 00:15:50 10° 233° (SW) 2,158 8.3 -35.9°
Enters shadow 00:18:03 13° 207° (SSW) 1,970 7.8 -36.5°
